Year,Month,Day,Hour,Minute,Value (Times are PST for temperature in C)
2016,07,25,00,00,18.10
2016,07,25,00,01,18.10
2016,07,25,00,02,18.10
2016,07,25,00,03,18.10
2016,07,25,00,04,18.00
2016,07,25,00,05,18.00
2016,07,25,00,06,18.00
2016,07,25,00,07,18.00
2016,07,25,00,08,17.90
2016,07,25,00,09,17.90
2016,07,25,00,10,17.90
2016,07,25,00,11,17.90
2016,07,25,00,12,17.90
2016,07,25,00,13,17.90
2016,07,25,00,14,17.90
2016,07,25,00,15,17.90
2016,07,25,00,16,17.80
2016,07,25,00,17,17.80
2016,07,25,00,18,17.80
2016,07,25,00,19,17.80
2016,07,25,00,20,17.80
2016,07,25,00,21,17.80
2016,07,25,00,22,17.70
2016,07,25,00,23,17.70
2016,07,25,00,24,17.70
2016,07,25,00,25,17.70
2016,07,25,00,26,17.70
2016,07,25,00,27,17.70
2016,07,25,00,28,17.60
2016,07,25,00,29,17.60
2016,07,25,00,30,17.60
2016,07,25,00,31,17.60
2016,07,25,00,32,17.60
2016,07,25,00,33,17.60
2016,07,25,00,34,17.60
2016,07,25,00,35,17.60
2016,07,25,00,36,17.50
2016,07,25,00,37,17.50
2016,07,25,00,38,17.50
2016,07,25,00,39,17.50
2016,07,25,00,40,17.50
2016,07,25,00,41,17.50
2016,07,25,00,42,17.40
2016,07,25,00,43,17.40
2016,07,25,00,44,17.40
2016,07,25,00,45,17.40
2016,07,25,00,46,17.40
2016,07,25,00,47,17.40
2016,07,25,00,48,17.30
2016,07,25,00,49,17.30
2016,07,25,00,50,17.30
2016,07,25,00,51,17.30
2016,07,25,00,52,17.30
2016,07,25,00,53,17.30
2016,07,25,00,54,17.30
2016,07,25,00,55,17.20
2016,07,25,00,56,17.20
2016,07,25,00,57,17.20
2016,07,25,00,58,17.20
2016,07,25,00,59,17.20
2016,07,25,01,00,17.20
2016,07,25,01,01,17.20
2016,07,25,01,02,17.10
2016,07,25,01,03,17.10
2016,07,25,01,04,17.10
2016,07,25,01,05,17.10
2016,07,25,01,06,17.10
2016,07,25,01,07,17.10
2016,07,25,01,08,17.10
2016,07,25,01,09,17.10
2016,07,25,01,10,17.10
2016,07,25,01,11,17.00
2016,07,25,01,12,17.00
2016,07,25,01,13,17.00
2016,07,25,01,14,17.00
2016,07,25,01,15,17.00
2016,07,25,01,16,16.90
2016,07,25,01,17,16.90
2016,07,25,01,18,16.90
2016,07,25,01,19,16.90
2016,07,25,01,20,16.90
2016,07,25,01,21,16.90
2016,07,25,01,22,16.90
2016,07,25,01,23,16.90
2016,07,25,01,24,16.90
2016,07,25,01,25,16.90
2016,07,25,01,26,16.90
2016,07,25,01,27,16.90
2016,07,25,01,28,16.80
2016,07,25,01,29,16.80
2016,07,25,01,30,16.80
2016,07,25,01,31,16.80
2016,07,25,01,32,16.80
2016,07,25,01,33,16.80
2016,07,25,01,34,16.80
2016,07,25,01,35,16.80
2016,07,25,01,36,16.80
2016,07,25,01,37,16.80
2016,07,25,01,38,16.80
2016,07,25,01,39,16.80
2016,07,25,01,40,16.80
2016,07,25,01,41,16.80
2016,07,25,01,42,16.80
2016,07,25,01,43,16.80
2016,07,25,01,44,16.80
2016,07,25,01,45,16.70
2016,07,25,01,46,16.70
2016,07,25,01,47,16.70
2016,07,25,01,48,16.70
2016,07,25,01,49,16.70
2016,07,25,01,50,16.70
2016,07,25,01,51,16.70
2016,07,25,01,52,16.70
2016,07,25,01,53,16.70
2016,07,25,01,54,16.70
2016,07,25,01,55,16.70
2016,07,25,01,56,16.70
2016,07,25,01,57,16.70
2016,07,25,01,58,16.60
2016,07,25,01,59,16.60
2016,07,25,02,00,16.60
2016,07,25,02,01,16.60
2016,07,25,02,02,16.60
2016,07,25,02,03,16.60
2016,07,25,02,04,16.60
2016,07,25,02,05,16.60
2016,07,25,02,06,16.60
2016,07,25,02,07,16.60
2016,07,25,02,08,16.60
2016,07,25,02,09,16.60
2016,07,25,02,10,16.60
2016,07,25,02,11,16.60
2016,07,25,02,12,16.60
2016,07,25,02,13,16.60
2016,07,25,02,14,16.60
2016,07,25,02,15,16.60
2016,07,25,02,16,16.60
2016,07,25,02,17,16.60
2016,07,25,02,18,16.60
2016,07,25,02,19,16.60
2016,07,25,02,20,16.60
2016,07,25,02,21,16.60
2016,07,25,02,22,16.50
2016,07,25,02,23,16.50
2016,07,25,02,24,16.50
2016,07,25,02,25,16.50
2016,07,25,02,26,16.40
2016,07,25,02,27,16.40
2016,07,25,02,28,16.40
2016,07,25,02,29,16.40
2016,07,25,02,30,16.40
2016,07,25,02,31,16.40
2016,07,25,02,32,16.30
2016,07,25,02,33,16.30
2016,07,25,02,34,16.30
2016,07,25,02,35,16.30
2016,07,25,02,36,16.30
2016,07,25,02,37,16.30
2016,07,25,02,38,16.30
2016,07,25,02,39,16.30
2016,07,25,02,40,16.20
2016,07,25,02,41,16.20
2016,07,25,02,42,16.20
2016,07,25,02,43,16.20
2016,07,25,02,44,16.20
2016,07,25,02,45,16.20
2016,07,25,02,46,16.20
2016,07,25,02,47,16.20
2016,07,25,02,48,16.20
2016,07,25,02,49,16.20
2016,07,25,02,50,16.20
2016,07,25,02,51,16.20
2016,07,25,02,52,16.20
2016,07,25,02,53,16.20
2016,07,25,02,54,16.20
2016,07,25,02,55,16.20
2016,07,25,02,56,16.20
2016,07,25,02,57,16.20
2016,07,25,02,58,16.10
2016,07,25,02,59,16.10
2016,07,25,03,00,16.10
2016,07,25,03,01,16.10
2016,07,25,03,02,16.10
2016,07,25,03,03,16.10
2016,07,25,03,04,16.10
2016,07,25,03,05,16.10
2016,07,25,03,06,16.10
2016,07,25,03,07,16.10
2016,07,25,03,08,16.10
2016,07,25,03,09,16.10
2016,07,25,03,10,16.10
2016,07,25,03,11,16.10
2016,07,25,03,12,16.10
2016,07,25,03,13,16.00
2016,07,25,03,14,16.00
2016,07,25,03,15,16.00
2016,07,25,03,16,16.00
2016,07,25,03,17,16.00
2016,07,25,03,18,16.00
2016,07,25,03,19,16.00
2016,07,25,03,20,15.90
2016,07,25,03,21,15.90
2016,07,25,03,22,15.90
2016,07,25,03,23,15.90
2016,07,25,03,24,15.90
2016,07,25,03,25,15.90
2016,07,25,03,26,15.90
2016,07,25,03,27,15.90
2016,07,25,03,28,15.90
2016,07,25,03,29,15.90
2016,07,25,03,30,15.90
2016,07,25,03,31,15.90
2016,07,25,03,32,15.80
2016,07,25,03,33,15.80
2016,07,25,03,34,15.80
2016,07,25,03,35,15.80
2016,07,25,03,36,15.80
2016,07,25,03,37,15.80
2016,07,25,03,38,15.80
2016,07,25,03,39,15.80
2016,07,25,03,40,15.80
2016,07,25,03,41,15.70
2016,07,25,03,42,15.70
2016,07,25,03,43,15.70
2016,07,25,03,44,15.70
2016,07,25,03,45,15.70
2016,07,25,03,46,15.70
2016,07,25,03,47,15.70
2016,07,25,03,48,15.70
2016,07,25,03,49,15.70
2016,07,25,03,50,15.70
2016,07,25,03,51,15.70
2016,07,25,03,52,15.60
2016,07,25,03,53,15.60
2016,07,25,03,54,15.60
2016,07,25,03,55,15.60
2016,07,25,03,56,15.60
2016,07,25,03,57,15.60
2016,07,25,03,58,15.60
2016,07,25,03,59,15.60
2016,07,25,04,00,15.60
2016,07,25,04,01,15.60
2016,07,25,04,02,15.60
2016,07,25,05,04,15.30
2016,07,25,05,05,15.30
2016,07,25,05,06,15.30
2016,07,25,05,07,15.30
2016,07,25,05,08,15.30
2016,07,25,05,09,15.30
2016,07,25,05,10,15.40
2016,07,25,05,11,15.40
2016,07,25,05,12,15.40
2016,07,25,05,13,15.40
2016,07,25,05,14,15.40
2016,07,25,05,15,15.40
2016,07,25,05,16,15.50
2016,07,25,05,17,15.40
2016,07,25,05,18,15.40
2016,07,25,05,19,15.40
2016,07,25,05,20,15.40
2016,07,25,05,21,15.40
2016,07,25,05,22,15.30
2016,07,25,05,23,15.30
2016,07,25,05,24,15.20
2016,07,25,05,25,15.20
2016,07,25,05,26,15.20
2016,07,25,05,27,15.10
2016,07,25,05,28,15.10
2016,07,25,05,29,15.00
2016,07,25,05,30,15.00
2016,07,25,05,31,14.90
2016,07,25,05,32,14.90
2016,07,25,05,33,14.90
2016,07,25,05,34,14.90
2016,07,25,05,35,14.80
2016,07,25,05,36,14.80
2016,07,25,05,37,14.80
2016,07,25,05,38,14.80
2016,07,25,05,39,14.80
2016,07,25,05,40,14.80
2016,07,25,05,41,14.80
2016,07,25,05,42,14.80
2016,07,25,05,43,14.80
2016,07,25,05,44,14.80
2016,07,25,05,45,14.80
2016,07,25,05,46,14.80
2016,07,25,05,47,14.80
2016,07,25,05,48,14.80
2016,07,25,05,49,14.90
2016,07,25,05,50,14.90
2016,07,25,05,51,14.90
2016,07,25,05,52,14.90
2016,07,25,05,53,14.90
2016,07,25,05,54,14.90
2016,07,25,05,55,14.90
2016,07,25,05,56,14.90
2016,07,25,05,57,15.00
2016,07,25,05,58,15.00
2016,07,25,05,59,15.00
2016,07,25,06,00,15.10
2016,07,25,06,01,15.10
2016,07,25,06,02,15.10
2016,07,25,06,03,15.20
2016,07,25,06,04,15.20
2016,07,25,06,05,15.20
2016,07,25,06,06,15.20
2016,07,25,06,07,15.30
2016,07,25,06,08,15.30
2016,07,25,06,09,15.30
2016,07,25,06,10,15.40
2016,07,25,06,11,15.40
2016,07,25,06,12,15.40
2016,07,25,06,13,15.40
2016,07,25,06,14,15.50
2016,07,25,06,15,15.50
2016,07,25,06,16,15.50
2016,07,25,06,17,15.60
2016,07,25,06,18,15.60
2016,07,25,06,19,15.60
2016,07,25,06,20,15.60
2016,07,25,06,21,15.60
2016,07,25,06,22,15.70
2016,07,25,06,23,15.70
2016,07,25,06,24,15.70
2016,07,25,06,25,15.80
2016,07,25,06,26,15.80
2016,07,25,06,27,15.80
2016,07,25,06,28,15.90
2016,07,25,06,29,15.90
2016,07,25,06,30,15.90
2016,07,25,06,31,16.00
2016,07,25,06,32,16.00
2016,07,25,06,33,16.10
2016,07,25,06,34,16.10
2016,07,25,06,35,16.20
2016,07,25,06,36,16.20
2016,07,25,06,37,16.20
2016,07,25,06,38,16.30
2016,07,25,06,39,16.30
2016,07,25,06,40,16.40
2016,07,25,06,41,16.40
2016,07,25,06,42,16.40
2016,07,25,06,43,16.50
2016,07,25,06,44,16.50
2016,07,25,06,45,16.60
2016,07,25,06,46,16.60
2016,07,25,06,47,16.60
2016,07,25,06,48,16.60
2016,07,25,06,49,16.60
2016,07,25,06,50,16.60
2016,07,25,06,51,16.70
2016,07,25,06,52,16.70
2016,07,25,06,53,16.70
2016,07,25,06,54,16.70
2016,07,25,06,55,16.70
2016,07,25,06,56,16.80
2016,07,25,06,57,16.80
2016,07,25,06,58,16.80
2016,07,25,06,59,16.80
2016,07,25,07,00,16.80
2016,07,25,07,01,16.90
2016,07,25,07,02,16.90
2016,07,25,07,03,16.90
2016,07,25,07,04,16.90
2016,07,25,07,05,16.90
2016,07,25,07,06,16.90
2016,07,25,07,07,16.90
2016,07,25,07,08,16.90
2016,07,25,07,09,16.90
2016,07,25,07,10,16.90
2016,07,25,07,11,16.90
2016,07,25,07,12,16.90
2016,07,25,07,13,16.90
2016,07,25,07,14,16.90
2016,07,25,07,15,16.90
2016,07,25,07,16,16.90
2016,07,25,07,17,16.90
2016,07,25,07,18,16.90
2016,07,25,07,19,16.90
2016,07,25,07,20,16.90
2016,07,25,07,21,16.90
2016,07,25,07,22,16.90
2016,07,25,07,23,16.90
2016,07,25,07,24,16.90
2016,07,25,07,25,16.90
2016,07,25,07,26,16.90
2016,07,25,07,27,16.90
2016,07,25,07,28,17.00
2016,07,25,07,29,17.00
2016,07,25,07,30,17.00
2016,07,25,07,31,17.10
2016,07,25,07,32,17.10
2016,07,25,07,33,17.10
2016,07,25,07,34,17.20
2016,07,25,07,35,17.20
2016,07,25,07,36,17.20
2016,07,25,07,37,17.30
2016,07,25,07,38,17.30
2016,07,25,07,39,17.30
2016,07,25,07,40,17.40
2016,07,25,07,41,17.40
2016,07,25,07,42,17.40
2016,07,25,07,43,17.40
2016,07,25,07,44,17.50
2016,07,25,07,45,17.50
2016,07,25,07,46,17.60
2016,07,25,07,47,17.60
2016,07,25,07,48,17.60
2016,07,25,07,49,17.70
2016,07,25,07,50,17.70
2016,07,25,07,51,17.70
2016,07,25,07,52,17.70
2016,07,25,07,53,17.80
2016,07,25,07,54,17.80
2016,07,25,07,55,17.90
2016,07,25,07,56,17.90
2016,07,25,07,57,17.90
2016,07,25,07,58,18.00
2016,07,25,07,59,18.10
2016,07,25,08,00,18.10
2016,07,25,08,01,18.20
2016,07,25,08,02,18.30
2016,07,25,08,03,18.40
2016,07,25,08,04,18.50
2016,07,25,08,05,18.60
2016,07,25,08,06,18.60
2016,07,25,08,07,18.70
2016,07,25,08,08,18.70
2016,07,25,08,09,18.70
2016,07,25,08,10,18.80
2016,07,25,08,11,18.80
2016,07,25,08,12,18.90
2016,07,25,08,13,19.00
2016,07,25,08,14,19.10
2016,07,25,08,15,19.10
2016,07,25,08,16,19.20
2016,07,25,08,17,19.30
2016,07,25,08,18,19.40
2016,07,25,08,19,19.40
2016,07,25,08,20,19.50
2016,07,25,08,21,19.60
2016,07,25,08,22,19.60
2016,07,25,08,23,19.70
2016,07,25,08,24,19.70
2016,07,25,08,25,19.80
2016,07,25,08,26,19.80
2016,07,25,08,27,19.90
2016,07,25,08,28,19.90
2016,07,25,08,29,19.90
2016,07,25,08,30,20.00
2016,07,25,08,31,20.00
2016,07,25,08,32,20.10
2016,07,25,08,33,20.10
2016,07,25,08,34,20.10
2016,07,25,08,35,20.20
2016,07,25,08,36,20.20
2016,07,25,08,37,20.20
2016,07,25,08,38,20.20
2016,07,25,08,39,20.20
2016,07,25,08,40,20.10
2016,07,25,08,41,20.10
2016,07,25,08,42,20.10
2016,07,25,08,43,20.10
2016,07,25,08,44,20.10
2016,07,25,08,45,20.10
2016,07,25,08,46,20.00
2016,07,25,08,47,20.00
2016,07,25,08,48,20.10
2016,07,25,08,49,20.10
2016,07,25,08,50,20.10
2016,07,25,08,51,20.10
2016,07,25,08,52,20.10
2016,07,25,08,53,20.10
2016,07,25,08,54,20.10
2016,07,25,08,55,20.20
2016,07,25,08,56,20.20
2016,07,25,08,57,20.30
2016,07,25,08,58,20.30
2016,07,25,08,59,20.40
2016,07,25,09,00,20.50
2016,07,25,09,01,20.50
2016,07,25,09,02,20.60
2016,07,25,09,03,20.70
2016,07,25,09,04,20.80
2016,07,25,09,05,20.80
2016,07,25,09,06,20.90
2016,07,25,09,07,21.00
2016,07,25,09,08,21.10
2016,07,25,09,09,21.10
2016,07,25,09,10,21.20
2016,07,25,09,11,21.20
2016,07,25,09,12,21.30
2016,07,25,09,13,21.40
2016,07,25,09,14,21.50
2016,07,25,09,15,21.60
2016,07,25,09,16,21.60
2016,07,25,09,17,21.70
2016,07,25,09,18,21.80
2016,07,25,09,19,21.90
2016,07,25,09,20,22.10
2016,07,25,09,21,22.20
2016,07,25,09,22,22.20
2016,07,25,09,23,22.30
2016,07,25,09,24,22.30
2016,07,25,09,25,22.30
2016,07,25,09,26,22.30
2016,07,25,09,27,22.30
2016,07,25,09,28,22.30
2016,07,25,09,29,22.40
2016,07,25,09,30,22.40
2016,07,25,09,31,22.40
2016,07,25,09,32,22.40
2016,07,25,09,33,22.50
2016,07,25,09,34,22.50
2016,07,25,09,35,22.60
2016,07,25,09,36,22.60
2016,07,25,09,37,22.60
2016,07,25,09,38,22.60
2016,07,25,09,39,22.70
2016,07,25,09,40,22.70
2016,07,25,09,41,22.70
2016,07,25,09,42,22.70
2016,07,25,09,43,22.70
2016,07,25,09,44,22.70
2016,07,25,09,45,22.70
2016,07,25,09,46,22.70
2016,07,25,09,47,22.70
2016,07,25,09,48,22.70
2016,07,25,09,49,22.70
2016,07,25,09,50,22.70
2016,07,25,09,51,22.80
2016,07,25,09,52,22.80
2016,07,25,09,53,22.70
2016,07,25,09,54,22.70
2016,07,25,09,55,22.70
2016,07,25,09,56,22.70
2016,07,25,09,57,22.70
2016,07,25,09,58,22.70
2016,07,25,09,59,22.70
2016,07,25,10,00,22.80
2016,07,25,10,01,22.80
2016,07,25,10,02,22.80
2016,07,25,10,03,22.90
2016,07,25,10,04,22.90
2016,07,25,10,05,22.90
2016,07,25,10,06,22.90
2016,07,25,10,07,22.90
2016,07,25,10,08,22.90
2016,07,25,10,09,23.00
2016,07,25,10,10,23.00
2016,07,25,10,11,22.90
2016,07,25,10,12,22.80
2016,07,25,10,13,22.70
2016,07,25,10,14,22.60
2016,07,25,10,15,22.60
2016,07,25,10,16,22.50
2016,07,25,10,17,22.50
2016,07,25,10,18,22.50
2016,07,25,10,19,22.50
2016,07,25,10,20,22.60
2016,07,25,10,21,22.70
2016,07,25,10,22,22.70
2016,07,25,10,23,22.70
2016,07,25,10,24,22.70
2016,07,25,10,25,22.70
2016,07,25,10,26,22.70
2016,07,25,10,27,22.70
2016,07,25,10,28,22.80
2016,07,25,10,29,22.80
2016,07,25,10,30,22.90
2016,07,25,10,31,23.00
2016,07,25,10,32,23.10
2016,07,25,10,33,23.20
2016,07,25,10,34,23.20
2016,07,25,10,35,23.20
2016,07,25,10,36,23.20
2016,07,25,10,37,23.20
2016,07,25,10,38,23.20
2016,07,25,10,39,23.30
2016,07,25,10,40,23.30
2016,07,25,10,41,23.40
2016,07,25,10,42,23.50
2016,07,25,10,43,23.60
2016,07,25,10,44,23.70
2016,07,25,10,45,23.80
2016,07,25,10,46,23.80
2016,07,25,10,47,23.80
2016,07,25,10,48,23.90
2016,07,25,10,49,23.90
2016,07,25,10,50,23.90
2016,07,25,10,51,23.90
2016,07,25,10,52,23.90
2016,07,25,10,53,23.90
2016,07,25,10,54,24.00
2016,07,25,10,55,24.00
2016,07,25,10,56,24.00
2016,07,25,10,57,24.00
2016,07,25,10,58,24.00
2016,07,25,10,59,24.10
2016,07,25,11,00,24.10
2016,07,25,11,01,24.10
2016,07,25,11,02,24.20
2016,07,25,11,03,24.20
2016,07,25,11,04,24.20
2016,07,25,11,05,24.20
2016,07,25,11,06,24.20
2016,07,25,11,07,24.20
2016,07,25,11,08,24.20
2016,07,25,11,09,24.20
2016,07,25,11,10,24.20
2016,07,25,11,11,24.30
2016,07,25,11,12,24.30
2016,07,25,11,13,24.40
2016,07,25,11,14,24.40
2016,07,25,11,15,24.40
2016,07,25,11,16,24.30
2016,07,25,11,17,24.20
2016,07,25,11,18,24.10
2016,07,25,11,19,24.00
2016,07,25,11,20,24.00
2016,07,25,11,21,24.00
2016,07,25,11,22,24.00
2016,07,25,11,23,24.00
2016,07,25,11,24,24.00
2016,07,25,11,25,24.10
2016,07,25,11,26,24.10
2016,07,25,11,27,24.20
2016,07,25,11,28,24.20
2016,07,25,11,29,24.20
2016,07,25,11,30,24.20
2016,07,25,11,31,24.20
2016,07,25,11,32,24.20
2016,07,25,11,33,24.20
2016,07,25,11,34,24.20
2016,07,25,11,35,24.20
2016,07,25,11,36,24.20
2016,07,25,11,37,24.20
2016,07,25,11,38,24.20
2016,07,25,11,39,24.30
2016,07,25,11,40,24.30
2016,07,25,11,41,24.30
2016,07,25,11,42,24.40
2016,07,25,11,43,24.30
2016,07,25,11,44,24.30
2016,07,25,11,45,24.30
2016,07,25,11,46,24.30
2016,07,25,11,47,24.40
2016,07,25,11,48,24.40
2016,07,25,11,49,24.40
2016,07,25,11,50,24.50
2016,07,25,11,51,24.40
2016,07,25,11,52,24.30
2016,07,25,11,53,24.30
2016,07,25,11,54,24.20
2016,07,25,11,55,24.10
2016,07,25,11,56,24.10
2016,07,25,11,57,24.10
2016,07,25,11,58,24.00
2016,07,25,11,59,24.10
2016,07,25,12,00,24.20
2016,07,25,12,01,24.30
2016,07,25,12,02,24.30
2016,07,25,12,03,24.30
2016,07,25,12,04,24.40
2016,07,25,12,05,24.40
2016,07,25,12,06,24.60
2016,07,25,12,07,24.70
2016,07,25,12,08,24.70
2016,07,25,12,09,24.70
2016,07,25,12,10,24.80
2016,07,25,12,11,24.80
2016,07,25,12,12,24.80
2016,07,25,12,13,24.90
2016,07,25,12,14,24.90
2016,07,25,12,15,25.00
2016,07,25,12,16,25.00
2016,07,25,12,17,25.10
2016,07,25,12,18,25.10
2016,07,25,12,19,25.20
2016,07,25,12,20,25.20
2016,07,25,12,21,25.20
2016,07,25,12,22,25.10
2016,07,25,12,23,25.00
2016,07,25,12,24,24.90
2016,07,25,12,25,24.90
2016,07,25,12,26,24.90
2016,07,25,12,27,24.90
2016,07,25,12,28,25.00
2016,07,25,12,29,25.10
2016,07,25,12,30,25.10
2016,07,25,12,31,25.00
2016,07,25,12,32,25.00
2016,07,25,12,33,25.00
2016,07,25,12,34,25.10
2016,07,25,12,35,25.10
2016,07,25,12,36,25.20
2016,07,25,12,37,25.20
2016,07,25,12,38,25.20
2016,07,25,12,39,25.10
2016,07,25,12,40,25.10
2016,07,25,12,41,25.00
2016,07,25,12,42,24.90
2016,07,25,12,43,24.80
2016,07,25,12,44,24.80
2016,07,25,12,45,24.80
2016,07,25,12,46,24.80
2016,07,25,12,47,24.80
2016,07,25,12,48,24.80
2016,07,25,12,49,24.70
2016,07,25,12,50,24.60
2016,07,25,12,51,24.60
2016,07,25,12,52,24.50
2016,07,25,12,53,24.50
2016,07,25,12,54,24.50
2016,07,25,12,55,24.60
2016,07,25,12,56,24.70
2016,07,25,12,57,24.80
2016,07,25,12,58,24.90
2016,07,25,12,59,25.00
2016,07,25,13,00,25.20
2016,07,25,13,01,25.30
2016,07,25,13,02,25.40
2016,07,25,13,03,25.50
2016,07,25,13,04,25.60
2016,07,25,13,05,25.70
2016,07,25,13,06,25.70
2016,07,25,13,07,25.70
2016,07,25,13,08,25.70
2016,07,25,13,09,25.70
2016,07,25,13,10,25.70
2016,07,25,13,11,25.80
2016,07,25,13,12,25.80
2016,07,25,13,13,25.80
2016,07,25,13,14,25.80
2016,07,25,13,15,25.80
2016,07,25,13,16,25.80
2016,07,25,13,17,25.80
2016,07,25,13,18,25.80
2016,07,25,13,19,25.70
2016,07,25,13,20,25.70
2016,07,25,13,21,25.60
2016,07,25,13,22,25.60
2016,07,25,13,23,25.60
2016,07,25,13,24,25.60
2016,07,25,13,25,25.60
2016,07,25,13,26,25.60
2016,07,25,13,27,25.60
2016,07,25,13,28,25.60
2016,07,25,13,29,25.60
2016,07,25,13,30,25.60
2016,07,25,13,31,25.60
2016,07,25,13,32,25.60
2016,07,25,13,33,25.70
2016,07,25,13,34,25.70
2016,07,25,13,35,25.80
2016,07,25,13,36,25.80
2016,07,25,13,37,25.80
2016,07,25,13,38,25.70
2016,07,25,13,39,25.70
2016,07,25,13,40,25.70
2016,07,25,13,41,25.70
2016,07,25,13,42,25.70
2016,07,25,13,43,25.70
2016,07,25,13,44,25.70
2016,07,25,13,45,25.60
2016,07,25,13,46,25.60
2016,07,25,13,47,25.40
2016,07,25,13,48,25.30
2016,07,25,13,49,25.20
2016,07,25,13,50,25.20
2016,07,25,13,51,25.10
2016,07,25,13,52,24.90
2016,07,25,13,53,24.80
2016,07,25,13,54,24.60
2016,07,25,13,55,24.50
2016,07,25,13,56,24.40
2016,07,25,13,57,24.40
2016,07,25,13,58,24.30
2016,07,25,13,59,24.30
2016,07,25,14,00,24.40
2016,07,25,14,01,24.50
2016,07,25,14,02,24.60
2016,07,25,14,03,24.70
2016,07,25,14,04,24.70
2016,07,25,14,05,24.70
2016,07,25,14,06,24.70
2016,07,25,14,07,24.60
2016,07,25,14,08,24.60
2016,07,25,14,09,24.60
2016,07,25,14,10,24.60
2016,07,25,14,11,24.60
2016,07,25,14,12,24.60
2016,07,25,14,13,24.60
2016,07,25,14,14,24.70
2016,07,25,14,15,24.80
2016,07,25,14,16,24.80
2016,07,25,14,17,24.80
2016,07,25,14,18,24.80
2016,07,25,14,19,24.80
2016,07,25,14,20,24.80
2016,07,25,14,21,24.80
2016,07,25,14,22,24.80
2016,07,25,14,23,24.80
2016,07,25,14,24,24.80
2016,07,25,14,25,24.70
2016,07,25,14,26,24.70
2016,07,25,14,27,24.70
2016,07,25,14,28,24.60
2016,07,25,14,29,24.60
2016,07,25,14,30,24.50
2016,07,25,14,31,24.60
2016,07,25,14,32,24.60
2016,07,25,14,33,24.70
2016,07,25,14,34,24.70
2016,07,25,14,35,24.70
2016,07,25,14,36,24.70
2016,07,25,14,37,24.60
2016,07,25,14,38,24.50
2016,07,25,14,39,24.30
2016,07,25,14,40,24.20
2016,07,25,14,41,24.20
2016,07,25,14,42,24.10
2016,07,25,14,43,24.20
2016,07,25,14,44,24.20
2016,07,25,14,45,24.30
2016,07,25,14,46,24.30
2016,07,25,14,47,24.40
2016,07,25,14,48,24.30
2016,07,25,14,49,24.30
2016,07,25,14,50,24.30
2016,07,25,14,51,24.30
2016,07,25,14,52,24.40
2016,07,25,14,53,24.30
2016,07,25,14,54,24.30
2016,07,25,14,55,24.30
2016,07,25,14,56,24.30
2016,07,25,14,57,24.30
2016,07,25,14,58,24.30
2016,07,25,14,59,24.20
2016,07,25,15,00,24.30
2016,07,25,15,01,24.30
2016,07,25,15,02,24.30
2016,07,25,15,03,24.30
2016,07,25,15,04,24.40
2016,07,25,15,05,24.40
2016,07,25,15,06,24.50
2016,07,25,15,07,24.50
2016,07,25,15,08,24.60
2016,07,25,15,09,24.70
2016,07,25,15,10,24.80
2016,07,25,15,11,24.90
2016,07,25,15,12,25.00
2016,07,25,15,13,25.10
2016,07,25,15,14,25.10
2016,07,25,15,15,25.20
2016,07,25,15,16,25.30
2016,07,25,15,17,25.20
2016,07,25,15,18,25.20
2016,07,25,15,19,25.10
2016,07,25,15,20,25.00
2016,07,25,15,21,25.00
2016,07,25,15,22,25.00
2016,07,25,15,23,25.00
2016,07,25,15,24,24.90
2016,07,25,15,25,24.90
2016,07,25,15,26,24.80
2016,07,25,15,27,24.80
2016,07,25,15,28,24.80
2016,07,25,15,29,24.90
2016,07,25,15,30,24.90
2016,07,25,15,31,24.90
2016,07,25,15,32,25.00
2016,07,25,15,33,25.00
2016,07,25,15,34,25.00
2016,07,25,15,35,25.00
2016,07,25,15,36,25.00
2016,07,25,15,37,25.00
2016,07,25,15,38,24.90
2016,07,25,15,39,24.90
2016,07,25,15,40,24.80
2016,07,25,15,41,24.70
2016,07,25,15,42,24.70
2016,07,25,15,43,24.60
2016,07,25,15,44,24.60
2016,07,25,15,45,24.60
2016,07,25,15,46,24.50
2016,07,25,15,47,24.40
2016,07,25,15,48,24.50
2016,07,25,15,49,24.50
2016,07,25,15,50,24.60
2016,07,25,15,51,24.60
2016,07,25,15,52,24.50
2016,07,25,15,53,24.40
2016,07,25,15,54,24.30
2016,07,25,15,55,24.30
2016,07,25,15,56,24.20
2016,07,25,15,57,24.20
2016,07,25,15,58,24.20
2016,07,25,15,59,24.20
2016,07,25,16,00,24.10
2016,07,25,16,01,24.10
2016,07,25,16,02,24.10
2016,07,25,16,03,24.10
2016,07,25,16,04,24.00
2016,07,25,16,05,24.00
2016,07,25,16,06,24.00
2016,07,25,16,07,24.00
2016,07,25,16,08,24.00
2016,07,25,16,09,24.00
2016,07,25,17,04,25.50
2016,07,25,17,05,25.60
2016,07,25,17,06,25.60
2016,07,25,17,07,25.60
2016,07,25,17,08,25.60
2016,07,25,17,09,25.60
2016,07,25,17,10,25.50
2016,07,25,17,11,25.50
2016,07,25,17,12,25.40
2016,07,25,17,13,25.40
2016,07,25,17,14,25.40
2016,07,25,17,15,25.40
2016,07,25,17,16,25.40
2016,07,25,17,17,25.40
2016,07,25,17,18,25.40
2016,07,25,17,19,25.40
2016,07,25,17,20,25.40
2016,07,25,17,21,25.40
2016,07,25,17,22,25.40
2016,07,25,17,23,25.40
2016,07,25,17,24,25.50
2016,07,25,17,25,25.50
2016,07,25,17,26,25.50
2016,07,25,17,27,25.50
2016,07,25,17,28,25.60
2016,07,25,17,29,25.50
2016,07,25,17,30,25.40
2016,07,25,17,31,25.30
2016,07,25,17,32,25.20
2016,07,25,17,33,25.10
2016,07,25,17,34,25.10
2016,07,25,17,35,25.20
2016,07,25,17,36,25.20
2016,07,25,17,37,25.10
2016,07,25,17,38,25.00
2016,07,25,17,39,24.90
2016,07,25,17,40,24.80
2016,07,25,17,41,24.80
2016,07,25,17,42,24.70
2016,07,25,17,43,24.70
2016,07,25,17,44,24.50
2016,07,25,17,45,24.40
2016,07,25,17,46,24.40
2016,07,25,17,47,24.40
2016,07,25,17,48,24.40
2016,07,25,17,49,24.50
2016,07,25,17,50,24.40
2016,07,25,17,51,24.30
2016,07,25,17,52,24.30
2016,07,25,17,53,24.20
2016,07,25,17,54,24.20
2016,07,25,17,55,24.20
2016,07,25,17,56,24.20
2016,07,25,17,57,24.20
2016,07,25,17,58,24.20
2016,07,25,17,59,24.20
2016,07,25,18,00,24.20
2016,07,25,18,01,24.10
2016,07,25,18,02,24.00
2016,07,25,18,03,24.00
2016,07,25,18,04,23.90
2016,07,25,18,05,23.90
2016,07,25,18,06,23.80
2016,07,25,18,07,23.80
2016,07,25,18,08,23.80
2016,07,25,18,09,23.80
2016,07,25,18,10,23.80
2016,07,25,18,11,23.80
2016,07,25,18,12,23.90
2016,07,25,18,13,23.90
2016,07,25,18,14,24.00
2016,07,25,18,15,24.10
2016,07,25,18,16,24.20
2016,07,25,18,17,24.30
2016,07,25,18,18,24.30
2016,07,25,18,19,24.30
2016,07,25,18,20,24.40
2016,07,25,18,21,24.40
2016,07,25,18,22,24.30
2016,07,25,18,23,24.20
2016,07,25,18,24,24.20
2016,07,25,18,25,24.10
2016,07,25,18,26,24.10
2016,07,25,18,27,24.20
2016,07,25,18,28,24.20
2016,07,25,18,29,24.20
2016,07,25,18,30,24.30
2016,07,25,18,31,24.30
2016,07,25,18,32,24.20
2016,07,25,18,33,24.20
2016,07,25,18,34,24.10
2016,07,25,18,35,24.00
2016,07,25,18,36,23.90
2016,07,25,18,37,23.90
2016,07,25,18,38,23.80
2016,07,25,18,39,23.70
2016,07,25,18,40,23.60
2016,07,25,18,41,23.50
2016,07,25,18,42,23.40
2016,07,25,18,43,23.40
2016,07,25,18,44,23.30
2016,07,25,18,45,23.20
2016,07,25,18,46,23.10
2016,07,25,18,47,23.00
2016,07,25,18,48,22.90
2016,07,25,18,49,22.90
2016,07,25,18,50,22.90
2016,07,25,18,51,22.90
2016,07,25,18,52,22.90
2016,07,25,18,53,22.90
2016,07,25,18,54,22.90
2016,07,25,18,55,22.90
2016,07,25,18,56,22.80
2016,07,25,18,57,22.80
2016,07,25,18,58,22.80
2016,07,25,18,59,22.70
2016,07,25,19,00,22.70
2016,07,25,19,01,22.70
2016,07,25,19,02,22.70
2016,07,25,19,03,22.60
2016,07,25,19,04,22.60
2016,07,25,19,05,22.60
2016,07,25,19,06,22.60
2016,07,25,19,07,22.60
2016,07,25,19,08,22.50
2016,07,25,19,09,22.50
2016,07,25,19,10,22.30
2016,07,25,19,11,22.20
2016,07,25,19,12,22.10
2016,07,25,19,13,22.10
2016,07,25,19,14,22.00